Terug naar catalogus

STARLINK-5759

ActiefCommunicatieVLEO
NORAD 55592·PAYLOAD·🇺🇸 United States

Gelanceerd Feb 12, 2023 vanaf Cape Canaveral Space Force Station

Loading…

Volgende Passages (komende 24 uur)

TLE

VersSource: CelesTrak SupGP

Epoch: Sep 15, 2026, 01:24 UTC

1 55592C 23020Z   26258.05881944 -.00031094  00000+0 -11262-2 0  2585
2 55592  43.0028  15.4380 0001340 269.1439 245.0343 15.27594430    10

Volg STARLINK-5759 in realtime met AllMySat

Download on the App Store